Location: Taukkyan
(23.1052°N, 94.0030°E)
Time: 10:56:38
(UTC+00:00)

SL-16 R/B - Pass Details

Date: 06 July 2020
Orbit: 985 x 1007 km, 99.5° (Epoch: 14 August)

Event Time Altitude Azimuth Distance (km) Brightness Sun altitude
Exits shadow 18:47:36 23° 52° (NE) 1,962 4.4 -42.1°
Drops below altitude 10° 18:51:17 10° 17° (NNE) 2,770 5.5 -41.9°
Sets 18:54:12 0° 5° (N) 3,725 6.3 -41.6°
